Terminal Aerodrome Forecast
Issued by NWS

Home | Current Version | Previous Version | Text Only | Print | Product List | Glossary On
Versions: 1 2 3 4 5 6 7 8 9 10 11 12 13
000
FTUS42 TJSJ 311000 AAA
TAFJBQ
TAF AMD
TJBQ 311016Z 3110/0106 11005KT P6SM VCSH FEW025 SCT050
      TEMPO 3110/3112 5SM SHRA SCT025 BKN040
     FM311430 07015KT P6SM SCT030 SCT050
     FM312230 11005KT P6SM SCT025=

USA.gov is the U.S. government's official web portal to all federal, state and local government web resources and services.